Find Starlink 31462

NORAD ID: 59466 Int'l Des: 2024-068 Owner: SPXS Country: US Constellation: starlink operational
LEOCIRCULAR

Live Position

Loading 3D Globe...

About Starlink 31462

Description loading...

Upcoming Passes

Passes for default location (London). Set your location on the main map for personalized predictions.

Altitude History

Loading altitude history...

Two-Line Element Set

1 59466U 24068M 26124.59534708 .00000082 00000-0 12517-4 0 9996
2 59466 43.0043 78.6990 0001149 271.8001 88.2719 15.27579202117070
Epoch: May 4, 2026 • Age: 8 hours

Current Status

Altitude 486.6 km
Velocity 7.63 km/s
Sub-Earth Point 41.54°N, 52.16°W
Launch Date Apr 10, 2024
Age 2 years
Type internet

Technical Details

Classification Payload
Mass 730.00 kg
Dry Mass 700.00 kg
Total Mass 730.00 kg
Length 0.30 m
Diameter 4.10 m
Span 29.00 m
Shape Box + pan
Manufacturer SPXS
Bus Type Starlink V2M
Phase Status In Orbit
Owner/State SPXS/US

Most Searched